Miscellaneous Local Product
Issued by NWS Hastings, NE

Home | Current Version | Previous Version | Graphics & Text | Print | Product List | Glossary On
Versions: 1 2 3 4 5 6 7 8 9 10 11 12 13 14 15 16 17 18 19 20 21 22 23 24 25 26 27 28 29 30 31 32 33 34 35 36 37 38 39 40 41 42 43 44 45 46 47 48 49 50
000
AXUS43 KGID 220802
MISGRI

GID CWA HOURLY WEATHER ROUNDUP
NATIONAL WEATHER SERVICE HASTINGS NE
300 AM CDT TUE APR 22 2014

NOTE: "FAIR" INDICATES FEW OR NO CLOUDS BELOW 12,000 FEET WITH NO
SIGNIFICANT WEATHER AND/OR OBSTRUCTIONS TO VISIBILITY.

...SOUTH CENTRAL NEBRASKA...

CITY           SKY/WX    TMP DP  RH WIND       PRES   REMARKS
GRAND ISLAND   CLEAR     41  33  73 S3        30.16F
HASTINGS       CLEAR     46  29  51 E3        30.16S
KEARNEY        CLEAR     46  30  53 CALM      30.17S
ORD            CLEAR     37  29  72 S7        30.16S WCI  32
YORK           CLEAR     41  28  60 NE6       30.16F
AURORA         CLEAR     46  30  54 NE6       30.16F
LEXINGTON      CLEAR     42  32  67 CALM      30.17F
HOLDREGE       CLEAR     43  30  59 E8        30.16F
HEBRON         CLEAR     47  32  56 NE5       30.16F

...NEBRASKA PANHANDLE...

CITY           SKY/WX    TMP DP  RH WIND       PRES   REMARKS
CHADRON        CLEAR     55  26  32 S22G28    30.01F
ALLIANCE       CLEAR     45  27  49 SE13      30.08F
SCOTTSBLUFF    CLEAR     47  27  45 E14       30.05F
SIDNEY         PTCLDY    50  30  46 S16       30.10F

...WESTERN AND NORTH CENTRAL NEBRASKA...

CITY           SKY/WX    TMP DP  RH WIND       PRES   REMARKS
VALENTINE      CLEAR     45  29  53 S8        30.13F
AINSWORTH      CLEAR     42  32  67 S8        30.14F
ONEILL         CLEAR     40  29  64 S3        30.16S
BROKEN BOW     CLEAR     34  28  79 CALM      30.15F
IMPERIAL       CLEAR     48  29  47 S10       30.14F
NORTH PLATTE   CLEAR     36  28  73 SE7       30.15F WCI  30
MCCOOK         CLEAR     47  31  53 E5        30.16F

...EASTERN NEBRASKA...

CITY           SKY/WX    TMP DP  RH WIND       PRES   REMARKS
NORFOLK        CLEAR     41  31  67 CALM      30.16S
SO SIOUX CITY  CLEAR     41  29  62 CALM      30.17S
TEKAMAH        CLEAR     38  28  67 NW8       30.16S WCI  32
COLUMBUS       CLEAR     39  27  60 CALM      30.17S
ALBION         CLEAR     38  29  70 CALM      30.16F
OMAHA EPPLEY   CLEAR     42  33  70 N8        30.15F
OFFUTT AFB     CLEAR     50  34  53 N7        30.15S
MILLARD        CLEAR     51  32  48 CALM      30.15S
LINCOLN        CLEAR     42  31  64 N8        30.17S
NEBRASKA CITY  CLEAR     49  34  56 N5        30.15S
BEATRICE       CLEAR     46  30  54 NE3       30.15F
FALLS CITY     CLEAR     48  35  60 NW8       30.13R

...NORTHERN KANSAS...

CITY           SKY/WX    TMP DP  RH WIND       PRES   REMARKS
GOODLAND       CLEAR     44  31  60 S12       30.18F
HILL CITY      CLEAR     43  37  79 CALM      30.17F
PHILLIPSBURG   CLEAR     46  30  53 NE3       30.17F
SMITH CENTER   CLEAR     46  30  53 E12       30.16F
BELOIT         CLEAR     45  34  65 NE6       30.15S
HAYS           CLEAR     48  30  49 NE9       30.16S
RUSSELL        CLEAR     50  29  44 NE8       30.15S
CONCORDIA      CLEAR     49  29  46 NE5       30.15S
SALINA         CLEAR     47  28  47 NW7       30.15S
TOPEKA         CLEAR     54  34  46 N9        30.12R



USA.gov is the U.S. government's official web portal to all federal, state and local government web resources and services.